Location: Aldenham
(51.6667°N, 0.3500°W)
Time: 05:53:29
(UTC+00:00)

A-11 Canister half - Pass Details

Date: 24 February 2026
Orbit: 1512 x 1687 km, 47.2° (Epoch: 8 March)

Event Time Altitude Azimuth Distance (km) Brightness Sun altitude
Rises 02:47:46 0° 287° (WNW) 4,888 - -37.6°
Reaches altitude 10° 02:52:05 10° 272° (W) 3,870 - -37.0°
Maximum altitude 02:58:24 20° 231° (SW) 3,124 - -36.3°
Drops below altitude 10° 03:04:36 10° 190° (S) 3,767 - -35.5°
Sets 03:08:45 0° 174° (S) 4,717 - -34.9°
